El Hierro > ESTACION METEOROLÓGICA Timijiraque - Valverde

DATOS ACTUALES Online

Ultima actulizacion 33 minutos

22.6 ºC

Temperatura

94

Humedad (%)

1011.77

Presión (mb)

6.2

Precipitación (mm)

16.5 O

Viento (Km/h)

DATOS DIARIOS

Temperatura últimas 24 horas (ºC)

Humedad últimas 24 horas (%)

Presión atmosférica últimas 24 horas (mb)

Precipitaciones últimas 23 horas (mm)

Viento últimas 24 horas (Km/h)

Hora Temperatura (°C) ºC Precipitación (mm) mm Presión (mb) mb Humedad (%) % Viento (Km/h) km/h
25 - 00:00 24.3 0 1014 69 30.4 W
25 - 01:00 24.9 0 1015 72 8.2 SO
25 - 02:00 24.4 0 1015 74 17.6 O
25 - 03:00 23.6 0 1014 76 18.3 NO
25 - 04:00 24 0 1013 72 9.9 NW
25 - 05:00 23.8 0 1013 78 18.5 O
25 - 06:00 23.1 0 1013 77 15.9 NO
25 - 07:00 23 0.1 1013 79 8.2 NO
25 - 08:00 22.2 0.3 1014 81 4.3 NW
25 - 09:00 21.9 1 1014 83 3.3 NO
25 - 10:00 21.8 1.9 1015 86 3.5 O
25 - 11:00 21.5 2.7 1015 87 11.3 O
25 - 12:00 21.5 3.4 1015 87 11.1 NO
25 - 13:00 22.4 4 1014 86 14.8 NO
25 - 14:00 22.6 0.4 1013 83 23.3 NO
25 - 15:00 22.8 1.6 1012 85 26.3 NO
25 - 16:00 22.7 2.2 1012 86 16.3 NO
25 - 17:00 22.2 2.6 1012 90 6.7 O
25 - 18:00 22.1 3.1 1012 91 2.6 SW
25 - 19:00 22.2 3.3 1012 92 2.5 W
25 - 20:00 22.2 3.6 1012 93 5.2 SO
25 - 21:00 22.6 4.6 1012 93 21 O
25 - 22:00 22.7 5.4 1012 94 18.1 O
25 - 23:00 22.6 6.2 1012 94 16.5 O
26 - 00:00
Apalmet utiliza cookies propias y de terceros para mejorar la usabilidad y la experiencia web. Política de cookies.